Location: Unspecified
(52.4292°N, 19.3359°E)
Time: 00:43:57
(UTC+02:00)

SR - Pass Details

Date: 03 June 2024
Orbit: 580 x 858 km, 66.7° (Epoch: 12 June)

Event Time Altitude Azimuth Distance (km) Brightness Sun altitude
Rises 00:56:52 0° 314° (NW) 2,853 ? -15.1°
Reaches altitude 10° 00:59:25 10° 301° (WNW) 1,924 ? -15.1°
Maximum altitude 01:02:56 25° 246° (WSW) 1,179 ? -15.1°
Enters shadow 01:04:10 22° 218° (SW) 1,288 ? -15.1°
Drops below altitude 10° 01:06:26 10° 190° (S) 1,893 - -15.0°
Sets 01:08:55 0° 177° (S) 2,798 - -15.0°
